EDDS

Stuttgart Airport

Airport
ICAO code
EDDS
IATA Code
STR
Summary
ICAO Region
EUR
ICAO Territory
Location

Echterdingen, Stuttgart,

Serving
Stuttgart
Elevation
1276 ft
Coordinates
48° 41' 17" N , 9° 12' 37" E
KCC
Metar
EDDS 270820Z AUTO VRB02KT 9999 SCT036 17/12 Q1019 TEMPO SHRA

Description

International airport serving Stuttgart, Germany.

Climatology

Temperate Marine climate/Oceanic climate (Köppen climate classification Cfb) - Moderately cool summer and comparatively warm winter.

Runways

Designator Length Width Surface Rops
7/25 3345 45 CON Yes/Yes

SKYbrary Partners:

Safety knowledge contributed by: